Location: Laverne
(36.7100°N, 99.8930°W)
Time: 01:54:13
(UTC-05:00)

Daily predictions for brighter satellites

Satellite Brightness Start Highest point End
(mag) Time Altitude Azimuth Time Altitude Azimuth Time Altitude Azimuth
CZ-4 R/B 3.8 00:00:31 10° N 00:05:24 80° WNW 00:05:37 77° WSW
Cosmos 2285 Rocket 4.5 00:00:19 10° N 00:06:23 46° ENE 00:07:34 42° E
Meteor 2-12 Rocket 4.3 00:00:54 10° N 00:07:00 84° E 00:07:55 66° SSE
ERBS 4.4 00:06:46 10° NNW 00:08:46 26° N 00:08:46 26° N
Terra 2.4 00:10:53 47° WSW 00:11:05 47° W 00:15:41 10° NNW
Cosmos 1814 Rocket 4.3 00:09:40 10° NNW 00:14:53 54° WSW 00:15:12 53° WSW
Cosmos 1626 3.6 00:20:51 37° NNW 00:20:51 37° NNW 00:23:25 10° N
CZ-4C R/B 3.7 00:22:54 22° ENE 00:22:54 22° ENE 00:25:26 10° NE
Cosmos 2263 Rocket 2.3 00:20:31 56° WSW 00:21:32 68° WNW 00:27:06 10° NNE
ALOS 2 4.4 00:23:03 22° ENE 00:23:03 22° ENE 00:25:53 10° NNE
Sich 1 4.3 00:30:18 33° NE 00:30:18 33° NE 00:32:55 10° NNE
Cosmos 841 Rocket 3.6 00:25:04 10° NNW 00:30:03 64° W 00:30:03 64° W
CZ-4C R/B 4.3 00:32:12 50° NNW 00:32:12 50° NNW 00:35:30 10° NNW
Spot 4 4.2 00:31:35 58° W 00:31:35 58° W 00:36:03 10° NNW
Cosmos 1763 Rocket 4.2 00:29:41 10° NNW 00:34:14 43° W 00:34:14 43° W
Cosmos 1707 Rocket 4.4 00:33:20 10° N 00:36:41 47° NNE 00:36:41 47° NNE
Cosmos 1072 Rocket 4.3 00:31:46 10° N 00:38:06 85° E 00:38:39 76° SSE
Cosmos 1464 Rocket 3.8 00:38:21 10° N 00:44:33 87° E 00:44:51 81° SSE
Cosmos 1455 4.0 00:45:44 10° NNW 00:47:56 29° NW 00:47:56 29° NW
Cosmos 1666 Rocket 4.5 00:51:48 48° N 00:51:48 48° N 00:55:03 10° N
Cosmos 304 Rocket 4.3 00:46:12 10° NNW 00:50:01 56° NW 00:50:01 56° NW
Cosmos 1844 Rocket 3.5 00:57:52 40° ENE 00:57:52 40° ENE 01:01:54 10° NE
Cosmos 1943 4.2 00:57:48 10° NW 01:02:27 35° W 01:02:27 35° W
H-2A ROCKET BODY 4.1 01:01:43 18° WSW 01:07:26 60° S 01:48:51 10° E
Tsikada Rocket 3.9 01:08:12 83° SE 01:08:21 85° E 01:14:45 10° N
CZ-2C R/B 3.3 01:09:06 84° NNW 01:09:06 84° NNW 01:14:40 10° NNW
Cosmos 1633 Rocket 4.3 01:10:53 40° NNW 01:10:53 40° NNW 01:13:51 10° N
Lacrosse 5 3.6 01:06:28 10° WNW 01:08:49 22° W 01:08:49 22° W
Cosmos 968 Rocket 4.0 01:33:50 55° NW 01:33:50 55° NW 01:38:29 10° N
CZ-2C R/B 3.4 01:32:25 10° N 01:37:20 43° WNW 01:37:20 43° WNW
Cosmos 489 Rocket 4.4 01:42:41 78° E 01:42:41 78° E 01:48:54 10° NNE
Cosmos 2278 Rocket 3.0 01:45:15 42° ENE 01:45:15 42° ENE 01:49:35 10° NE
Meteor 1-26 Rocket 4.3 01:42:12 10° N 01:47:10 67° NE 01:47:10 67° NE
Cosmos 1844 3.8 01:49:47 72° N 01:49:47 72° N 01:54:53 10° NNE
Cosmos 1538 Rocket 4.3 01:49:04 10° NNW 01:53:38 65° NNW 01:53:38 65° NNW
SL-24 R/B - RUBIN 2 4.4 01:51:57 10° NNW 01:56:28 57° N 01:56:28 57° N
COSMOS 2406 3.5 01:56:18 10° NNW 02:01:04 60° WNW 02:01:04 60° WNW
CZ-4B R/B 4.1 02:05:33 21° N 02:05:33 21° N 02:06:49 10° N
Cosmos 2279 Rocket 4.0 02:02:20 10° N 02:08:35 67° E 02:08:54 66° E
CZ-4C R/B 3.2 02:08:02 33° WNW 02:08:58 36° NW 02:14:21 10° NNE
Meteor 2-10 Rocket 4.4 02:03:58 10° NNW 02:08:12 43° WNW 02:08:12 43° WNW
Meteor 2-3 Rocket 4.0 02:19:12 60° WNW 02:19:12 60° WNW 02:24:45 10° N
Cosmos 1825 4.3 02:21:09 25° NE 02:21:09 25° NE 02:23:00 10° NNE
Cosmos 2082 Rocket 4.0 02:15:28 10° N 02:20:05 25° ENE 02:22:59 17° E
ATLAS 3B R/B 3.6 02:28:26 37° ESE 02:29:06 37° ESE 02:35:41 10° NE
Cosmos 1782 4.3 02:27:11 10° N 02:29:43 36° NNE 02:29:43 36° NNE
Cosmos 2112 Rocket 4.4 02:28:03 10° N 02:33:16 56° ENE 02:33:24 56° ENE
Cosmos 44 Rocket 3.9 02:41:11 50° ENE 02:41:11 50° ENE 02:44:55 10° NE
Cosmos 1844 Rocket 4.3 02:39:30 21° WNW 02:40:41 22° WNW 02:44:59 10° N
Meteor 2-6 Rocket 4.2 02:35:34 10° N 02:41:08 71° E 02:41:19 71° E
Timation 1 Rocket 4.3 02:43:06 71° W 02:43:20 72° WNW 02:49:19 10° NNE
Cosmos 1680 Rocket 3.5 02:40:50 10° NNW 02:45:44 77° N 02:45:44 77° N
Helios 1A Rocket 4.1 02:44:30 10° NNE 02:47:25 40° NE 02:47:25 40° NE
Cosmos 1937 Rocket 4.2 02:49:53 42° E 02:49:53 42° E 02:54:34 10° NNE
Cosmos 1174 4.5 02:54:45 81° N 02:54:45 81° N 03:00:31 10° NNE
Aureole 1 Rocket 4.4 02:48:19 10° NNW 02:55:23 85° ENE 02:58:13 46° SSE
Resurs 1-4 Rocket 4.0 02:54:50 10° NE 02:58:37 20° E 03:00:05 18° ESE
Cosmos 1092 Rocket 4.0 03:01:33 62° SSE 03:02:35 76° E 03:08:51 10° N
Cosmos 1898 Rocket 3.4 03:03:10 83° E 03:03:10 83° E 03:08:20 10° NNE
Meteor 2-20 4.5 03:02:17 61° SSE 03:03:16 72° E 03:09:24 10° NNE
Cosmos 990 Rocket 4.4 03:05:25 51° ESE 03:05:31 51° ESE 03:10:31 10° NNE
SeaSat 1 3.0 03:05:50 41° ESE 03:07:08 54° ENE 03:11:57 10° NNW
Cosmos 1607 3.9 03:08:10 63° WSW 03:09:03 73° WNW 03:15:20 10° NNE
CZ-2D R/B 3.6 03:09:40 10° NE 03:14:15 28° E 03:15:55 23° SE
Cosmos 2026 Rocket 4.4 03:13:40 42° SE 03:15:18 54° E 03:21:11 10° NNE
Cosmos 1340 3.6 03:15:15 10° N 03:18:02 46° NNE 03:18:02 46° NNE
SL-08 R/B 3.9 03:18:18 44° ESE 03:19:23 54° ENE 03:24:05 10° N
ARIANE 5 R/B 4.0 03:15:23 10° NE 03:19:31 26° E 03:20:57 22° ESE
USA 238 DEB 3.9 03:18:44 48° SSE 03:20:23 60° ESE 03:27:14 10° NE
USA 238 3.9 03:18:50 48° SSE 03:20:29 60° ESE 03:27:20 10° NE
H-2A R/B 4.3 03:17:04 10° NNW 03:20:19 23° WNW 03:20:19 23° WNW
CBERS-1 3.9 03:21:56 10° NNE 03:27:06 77° ESE 03:27:43 66° SSE
Cosmos 2278 Rocket 3.7 03:27:04 21° WNW 03:28:29 23° WNW 03:32:56 10° N
CZ-3A R/B 4.2 03:30:32 23° SSE 03:30:32 23° SSE 03:40:31 10° ESE
IRS-P3 4.1 03:32:07 10° N 03:37:27 73° WNW 03:38:19 60° SW
COSMOS 2487 3.6 03:34:57 10° NNW 03:37:16 38° NNW 03:37:16 38° NNW
Cosmos 2369 Rocket 3.6 03:36:24 22° SE 03:38:34 28° ESE 03:43:16 10° NE
Cosmos 1833 Rocket 2.5 03:33:44 10° NNW 03:39:23 74° WSW 03:40:32 56° S
NPP 3.6 03:34:28 10° N 03:39:52 75° WNW 03:40:50 59° SW
GP-B 3.0 03:37:24 10° N 03:41:51 77° W 03:41:55 77° W
Cosmos 1655 Rocket 4.1 03:40:47 40° SSE 03:43:11 73° E 03:49:25 10° N
CZ-3B DEB 4.2 03:33:34 10° NW 03:46:54 74° NE 03:57:49 10° SE
SL-16 R/B 2.8 03:46:39 21° SSE 03:50:57 69° ENE 03:57:09 10° N
Cosmos 1812 3.9 03:48:42 10° N 03:52:20 39° E 03:53:36 30° ESE
Cosmos 1428 Rocket 4.5 03:50:56 38° S 03:53:28 78° E 03:59:42 10° N
Cosmos 1975 Rocket 4.0 03:49:35 10° N 03:53:44 43° E 03:55:49 25° SE
Cosmos 1733 Rocket 4.4 03:56:07 26° WNW 03:56:07 26° WNW 03:59:34 10° NNW
NOSS 3-2 (C) 4.3 03:57:46 26° SSE 04:00:22 39° ESE 04:06:12 10° NE
USA 267 3.5 03:54:00 10° NE 04:00:25 57° SE 04:03:11 34° SSW
NOSS 3-2 (A) 3.8 03:58:42 34° S 04:01:02 54° ESE 04:07:14 10° NE
Meteor 1-25 Rocket 4.3 04:01:28 34° S 04:03:55 71° E 04:09:31 10° NNE
Cosmos 2082 Rocket 2.6 03:59:03 10° NW 04:04:17 41° WSW 04:04:46 40° WSW
Meteor 1-14 Rocket 4.3 04:02:55 40° SSW 04:05:14 84° W 04:11:16 10° N
ADEOS Rocket 3.5 04:01:01 10° N 04:08:34 67° WNW 04:12:01 33° SW
Cosmos 2344 3.8 04:05:50 29° S 04:09:58 65° ESE 04:18:02 10° NE
ASTRO E2 4.3 04:12:02 22° SE 04:12:02 22° SE 04:14:15 10° ESE
Sich 1 Rocket 4.2 04:16:13 37° WSW 04:16:55 40° W 04:21:14 10° N
Cosmos 2266 Rocket 4.5 04:13:52 18° SSE 04:18:38 61° E 04:24:55 10° NNE
ATLAS 3B R/B 3.5 04:15:40 25° WSW 04:19:43 45° NW 04:26:36 10° NNE
BREEZE-M DEB (TANK) 3.8 04:14:14 10° WNW 04:20:07 50° NNE 04:22:57 10° E
Okean 3 4.1 04:20:03 10° NNW 04:23:57 36° W 04:24:11 36° W
S3M 3.9 04:19:43 10° N 04:25:55 80° W 04:30:19 20° S
ADEOS 3.5 04:21:21 10° N 04:26:34 72° WNW 04:29:02 32° SSW
Gbstr 26 Del rocket 3.4 04:27:41 33° SSE 04:28:31 38° SE 04:32:01 10° ENE
Cosmos 1633 2.8 04:29:00 34° SSE 04:30:26 67° E 04:34:03 10° NNE
Okean 1 3.4 04:30:25 10° N 04:34:29 75° E 04:37:20 19° SSE
Timation 2 Rocket 4.4 04:32:08 10° NW 04:37:45 39° WSW 04:41:04 23° SSW
Resurs 1-4 Rocket 2.6 04:33:34 10° N 04:38:38 46° WNW 04:41:09 27° SW
Milstar 3 4.4 04:33:10 22° SSW 04:38:48 41° SSE 04:53:32 10° E
GRACE-1 4.5 04:38:43 32° SE 04:39:39 52° E 04:42:17 10° N
GRACE-2 4.5 04:39:08 31° SE 04:40:05 51° E 04:42:43 10° N
MOS 1 Rocket 3.5 04:38:35 10° N 04:43:57 78° WNW 04:47:19 22° SSW
Okean 2 Rocket 3.5 04:42:50 30° SW 04:44:32 46° W 04:48:48 10° N
SeaSat 1 4.1 04:45:35 17° W 04:45:35 17° W 04:48:03 10° WNW
OAO 1 4.5 04:44:54 22° WSW 04:48:32 71° S 04:54:00 10° E
Meteor 1-11 Rocket 4.2 04:46:57 10° S 04:52:32 63° E 04:58:16 10° NNE
Cosmos 1441 Rocket 3.8 04:50:03 10° N 04:54:01 61° E 04:57:56 10° SSE
CZ-2D R/B 3.0 04:49:28 10° N 04:54:16 34° WNW 04:57:14 20° WSW
Cosmos 1125 Rocket 3.9 04:51:59 23° SW 04:54:59 48° WNW 05:00:06 10° N
Delta 2 Rocket 4.5 04:53:06 21° WSW 04:55:15 30° SSW 04:59:15 10° SSE
ARIANE 5 R/B 3.5 04:54:14 10° N 04:58:36 31° WNW 05:01:17 19° WSW
CZ-2D R/B 3.7 04:54:30 10° N 04:58:52 61° WNW 05:01:48 20° SSW
Cosmos 883 Rocket 4.5 04:56:43 10° N 05:03:03 78° W 05:09:17 10° S
Cosmos 1300 Rocket 3.9 04:59:04 10° S 05:03:27 67° E 05:07:52 10° NNE
UNKNOWN OBJECT B 3.3 05:00:14 10° N 05:03:43 39° WNW 05:05:36 22° SW
OE (NEXTSAT) 4.5 05:03:40 24° SW 05:05:35 65° SE 05:09:07 10° ENE
H-2A R/B 3.6 04:40:22 10° WSW 05:09:37 60° S 05:14:38 10° E
PSLV R/B 3.1 05:13:23 19° WSW 05:15:37 86° NNW 05:18:56 10° ENE
Centaur D AC-25 3.9 05:00:40 10° W 05:16:00 44° SSW 05:20:31 10° ESE
Okean O Rocket 2.5 05:13:10 10° NNE 05:17:26 48° E 05:21:41 10° S
Cosmos 1943 Rocket 2.2 05:14:38 14° SSW 05:19:31 70° WNW 05:25:09 10° NNE
Cosmos 2369 Rocket 3.0 05:18:13 14° WSW 05:22:23 35° WNW 05:27:33 10° N
Cosmos 405 Rocket 3.7 05:19:04 10° NNW 05:22:32 29° W 05:25:27 13° SSW
Cosmos 1269 Rocket 4.4 05:21:47 10° NNW 05:26:49 44° WSW 05:31:47 10° S
BREEZE-M R/B 2.9 05:23:18 10° NW 05:28:02 66° NNE 05:30:47 10° ESE
Meteor 1-19 Rocket 4.3 05:23:32 10° NNW 05:29:05 64° W 05:34:42 10° S
USA 161 2.0 05:29:37 14° SSW 05:31:11 28° W 05:33:23 10° NW
COSMOS 2455 3.1 05:27:30 12° SW 05:33:00 57° WNW 05:38:56 10° NNE
deb Kosmos-1763 4.1 05:30:09 10° NNW 05:33:54 67° WSW 05:37:37 10° S
ADEOS II 2.1 05:29:03 10° NNE 05:34:20 86° WNW 05:39:36 10° SSW
SL-16 R/B 4.0 05:31:44 11° SW 05:35:02 16° W 05:38:44 10° NW
Cosmos 1536 3.0 05:34:27 10° SSW 05:38:18 52° W 05:42:13 10° N
CZ-3B DEB 4.2 05:28:42 10° NW 05:40:20 42° WSW 05:49:23 10° S
Cosmos 1656 Rocket 3.8 05:35:50 10° SSW 05:41:13 78° ESE 05:46:39 10° NNE
USA 267 4.1 05:37:13 10° NNE 05:43:13 41° NW 05:49:14 10° W
PAYLOAD B 4.3 05:38:16 10° NNE 05:43:49 87° ESE 05:49:22 10° SSW
Okean 2 4.5 05:40:02 10° N 05:44:06 50° E 05:48:09 10° SSE
Cosmos 494 Rocket 4.1 05:41:42 10° NNW 05:47:00 89° W 05:52:14 10° SSE
CZ-4B DEB 4.3 05:45:23 10° NNE 05:50:56 88° WNW 05:56:29 10° SSW
ASTRO E2 3.4 05:47:25 10° WSW 05:51:08 38° S 05:54:51 10° ESE
NOSS 3-2 (C) 4.5 05:45:49 10° WSW 05:51:15 34° NW 05:57:11 10° NNE
Cosmos 1833 4.3 05:46:05 10° NNW 05:51:56 82° WSW 05:57:42 10° SSE
